This is the latest recevied weather packets stored in our database for station/object KK6LZB. If no packets are shown the sender has not sent any weather packets the latest 10 day(s).
| Time | Temp. | Humidity | Pressure | Rain* | Wind** | Luminosity | Snow |
|---|---|---|---|---|---|---|---|
| 1778106945 | 22.78° C | 50% | 1018.4 hPa | 0 mm | - | 505 W/m² | - |
| 1778106642 | 23.33° C | 48% | 1018.3 hPa | 0 mm | - | 518 W/m² | - |
| 1778106339 | 23.89° C | 48% | 1018.5 hPa | 0 mm | - | 525 W/m² | - |
| 1778106035 | 23.89° C | 49% | 1018.4 hPa | 0 mm | - | 537 W/m² | - |
| 1778105733 | 23.33° C | 50% | 1018.6 hPa | 0 mm | - | 550 W/m² | - |
| 1778105430 | 24.44° C | 50% | 1018.5 hPa | 0 mm | - | 560 W/m² | - |
| 1778105126 | 23.89° C | 49% | 1018.7 hPa | 0 mm | - | 572 W/m² | - |
| 1778104822 | 22.78° C | 58% | 1018.4 hPa | 0 mm | - | 584 W/m² | - |
| 1778104519 | 21.67° C | 59% | 1018.5 hPa | 0 mm | - | 594 W/m² | - |
| 1778104215 | 22.22° C | 57% | 1018.6 hPa | 0 mm | - | 604 W/m² | - |
| 1778103912 | 22.22° C | 56% | 1018.6 hPa | 0 mm | - | 614 W/m² | - |
| 1778103609 | 22.22° C | 58% | 1018.7 hPa | 0 mm | - | 623 W/m² | - |
| 1778103307 | 22.78° C | 59% | 1018.6 hPa | 0 mm | - | 630 W/m² | - |
| 1778103004 | 23.33° C | 58% | 1018.7 hPa | 0 mm | - | 640 W/m² | - |
| 1778102700 | 23.33° C | 54% | 1019 hPa | 0 mm | - | 648 W/m² | - |
| 1778102395 | 22.78° C | 61% | 1018.8 hPa | 0 mm | - | 657 W/m² | - |
| 1778102091 | 22.78° C | 62% | 1019 hPa | 0 mm | - | 662 W/m² | - |
| 1778101789 | 22.22° C | 64% | 1019 hPa | 0 mm | - | 671 W/m² | - |
| 1778101485 | 21.11° C | 68% | 1019 hPa | 0 mm | - | 678 W/m² | - |
| 1778101182 | 21.11° C | 68% | 1019 hPa | 0 mm | - | 685 W/m² | - |
| 1778100878 | 21.11° C | 67% | 1019 hPa | 0 mm | - | 690 W/m² | - |
| 1778100574 | 21.11° C | 70% | 1019 hPa | 0 mm | - | 695 W/m² | - |
| 1778100272 | 21.67° C | 67% | 1019.2 hPa | 0 mm | - | 700 W/m² | - |
| 1778099970 | 21.11° C | 69% | 1019.2 hPa | 0 mm | - | 707 W/m² | - |
| 1778099667 | 20.56° C | 71% | 1019.1 hPa | 0 mm | - | 709 W/m² | - |
* Rain latest hour (hover to see other rain measurements)
** Current wind speed in m/s (hover to see current wind gust speed)